Domov               UVHVVR             MKGP            O straneh              
ZDRAVSTVENO VARSTVO RASTLIN
  MREŽA AGROMET. POSTAJ
 ► PROGNOSTIČNA OBVESTILA
AGROMETEOROLOŠKI PODATKI -
ARSO
OBVLADOVANJE TVEGANJ ZARADI
NEUGODNIH VREMENSKIH RAZMER
  ► NARAVNE NESREČE
  ► SUŠA/MOČA
  ► NAMAKANJE
  ► ŽLED (gozdarstvo)
KARTOGRAFSKI PRIKAZI
SPLETNE POVEZAVE
PROJEKTI IN PUBLIKACIJE

AGROMETEOROLOŠKA MREŽA: VREMENSKE POSTAJE IN FENOLOŠKA OPAZOVANJA

Pregled podatkov za lokacijo Bizeljsko, meteorološka postaja 38541

Pregled senzorjev na lokaciji

ID Ime Zadnja
vrednost
Datum
zadnje
spremembe
Tip
senzorja
2027 Temperatura 2 m ( °C) 12,16 °C 24.10.2017 10:29 50YA
2028 Relativna vlaga 2 m (% RH) 50,62 % RH 24.10.2017 10:29 50YA
2029 Omočenost lista (U) 0 U 24.10.2017 10:30 A730WET
2030 Padavine 0.2 mm (mm) 0 mm 24.10.2017 10:30 Rain-O-Matic

Pregled podatkov zadnjih 24 ur

Zap.
št.
Datum in čas Bizeljsko
Omočenost
lista
Padavine
0.2
mm
Relativna
vlaga
2
m
Temperatura
2
m
0 24.10.2017 09:30 0 0 50,62 12,16
1 24.10.2017 09:00 0 0 50,96 11,82
2 24.10.2017 08:30 0 0 53,77 11,18
3 24.10.2017 08:00 0 0 57,44 10,4
4 24.10.2017 07:30 0 0 59,9 9,55
5 24.10.2017 07:00 0 0 62,42 8,82
6 24.10.2017 06:30 0 0 62,69 8,77
7 24.10.2017 06:00 0 0 61,15 9,18
8 24.10.2017 05:30 0 0 60,93 9,21
9 24.10.2017 05:00 0 0 60,44 9,38
10 24.10.2017 04:30 0 0 61,73 9,06
11 24.10.2017 04:00 0 0 60,34 9,3
12 24.10.2017 03:30 0 0 61,34 9,23
13 24.10.2017 03:00 0 0 61,61 9,16
14 24.10.2017 02:30 0 0 61,27 9,26
15 24.10.2017 02:00 0 0 61,34 9,28
16 24.10.2017 01:30 0 0 61,95 9,13
17 24.10.2017 01:00 0 0 60,81 9,35
18 24.10.2017 00:30 0 0 59,1 9,67
19 24.10.2017 00:00 0 0 58,73 9,77
20 23.10.2017 23:30 0 0 56,7 10,09
21 23.10.2017 23:00 0 0 55,87 10,21
22 23.10.2017 22:30 0 0 55,36 10,23
23 23.10.2017 22:00 0 0 54,16 10,43
24 23.10.2017 21:30 0 0 54,73 10,35
25 23.10.2017 21:00 0 0 53,87 10,35
26 23.10.2017 20:30 0 0 54,04 10,28
27 23.10.2017 20:00 0 0 52,55 10,38
28 23.10.2017 19:30 0 0 52,23 10,53
29 23.10.2017 19:00 0 0 53,24 10,4
30 23.10.2017 18:30 0 0 57,61 10,11
31 23.10.2017 18:00 0 0 59,05 10,06
32 23.10.2017 17:30 0 0 61,66 9,91
33 23.10.2017 17:00 0 0 65,96 9,72
34 23.10.2017 16:30 1 0 67,5 9,65
35 23.10.2017 16:00 0 0 74,21 9,4
36 23.10.2017 15:30 0 0 78,14 9,43
37 23.10.2017 15:00 3 0 80,66 9,62
38 23.10.2017 14:30 7 0 81,2 9,5
39 23.10.2017 14:00 10 0 83,08 9,47
40 23.10.2017 13:30 10 0 88,94 9,08
41 23.10.2017 13:00 10 0 88,06 9,06
42 23.10.2017 12:30 10 0,2 80,2 8,79
43 23.10.2017 12:00 10 0 87,57 8,38
44 23.10.2017 11:30 10 0,2 92,19 8,08
© 2011 Ministrstvo za kmetijstvo, gozdarstvo in prehrano. Vse pravice pridržane.